Miscellaneous Local Product
Issued by NWS North Platte, NE

Home | Current Version | Previous Version | Text Only | Print | Product List | Glossary On
Versions: 1 2 3 4 5 6 7 8 9 10 11 12 13 14 15 16 17 18 19 20 21 22 23 24 25 26 27 28 29 30 31 32 33 34 35 36 37 38 39 40 41 42 43 44 45 46 47 48 49 50
690
AXUS43 KLBF 151010
MISLBF


WESTERN AND NORTH CENTRAL NEBRASKA HOURLY WEATHER ROUNDUP
NATIONAL WEATHER SERVICE NORTH PLATTE NE
400 AM CST FRI DEC 15 2017

NOTE: "FAIR" INDICATES FEW OR NO CLOUDS BELOW 12,000 FEET WITH NO
SIGNIFICANT WEATHER AND/OR OBSTRUCTIONS TO VISIBILITY.

NOTE: STATIONS NOT REPORTING VARIABLES SUCH AS SKY/WEATHER OR
PRESSURE ARE PROVIDED BY RAWS AND APRS NETWORKS AND ARE NOT UNDER
NATIONAL WEATHER SERVICE QUALITY CONTROL.

...OBSERVATIONS IN AND NEAR THE EASTERN PANHANDLE OF NEBRASKA...

CITY           SKY/WX    TMP DP  RH WIND       PRES   REMARKS
PINE RIDGE     CLEAR     24  19  81 W7        30.02F WCI  16
GORDON         FAIR      19  15  82 SW9       30.00F WCI   9
CHADRON        CLOUDY    14  10  84 W8        30.03F WCI   3
ALLIANCE       CLOUDY     7   4  87 W9        30.03F WCI  -7
SIDNEY         CLOUDY    17  12  80 W9        30.08F WCI   6
CRESCENT LAKE    N/A     18  15  86 SW6         N/A  WCI  10
$$

...OBSERVATIONS IN NORTHERN NEBRASKA AND FAR SOUTHERN SOUTH DAKOTA...

CITY           SKY/WX    TMP DP  RH WIND       PRES   REMARKS
WINNER         FAIR      28  22  78 SW9       30.00F WCI  19
VALENTINE      PTCLDY    26  20  77 W9        30.02F WCI  17
THEDFORD       CLEAR     22  18  86 W5        30.07F WCI  15
AINSWORTH      CLEAR     26  23  88 W10       30.03F WCI  16
O`NEILL        CLEAR     28  26  94 W10       30.04F WCI  18
ORD            CLEAR     26  22  84 W12       30.08F WCI  16
BROKEN BOW     CLEAR     24  19  81 W8        30.09F WCI  15
VALENTINE NWR    N/A     23  19  85 W8          N/A  WCI  14
HALSEY           N/A     22  18  85 W5          N/A  WCI  16
BUTTE            N/A     27  24  86 W10         N/A  WCI  17
CHAMBERS         N/A     26  22  86 W3          N/A
EWING            N/A     30  27  88 W8          N/A  WCI  22
$$

...OBSERVATIONS IN SOUTHWEST NEBRASKA AND FAR NORTHEAST COLORADO...

CITY           SKY/WX    TMP DP  RH WIND       PRES   REMARKS
WRAY           FAIR      16  12  86 W7        30.15F WCI   6
HOLYOKE        FAIR      19  16  86 W10       30.13F WCI   8
IMPERIAL       CLOUDY    17  14  88 W9        30.14F WCI   6
OGALLALA       CLOUDY    17  14  86 W9        30.11F WCI   6
NORTH PLATTE   CLOUDY    14  12  92 W5        30.12F WCI   6
MCCOOK         CLOUDY    17  15  92 SW9       30.17S WCI   6
LEXINGTON      CLOUDY    19  15  88 NW3       30.14F
STAPLETON        N/A     19  16  87 CALM        N/A
GOTHENBURG       N/A     22  18  83 W3          N/A
CALLAWAY         N/A     23  20  87 W12         N/A  WCI  12
$$

...OBSERVATIONS IN CENTRAL LINCOLN COUNTY AREA...

CITY           SKY/WX    TMP DP  RH WIND       PRES   REMARKS
N.P. AIRPORT   CLOUDY    14  12  92 W5        30.12F WCI   6
N.P. DOWNTOWN    N/A     19  16  86 CALM        N/A
N.P. SOUTHEAST   N/A     19  14  81 CALM        N/A
N.P. HILLCREST   N/A     18  15  88 W5          N/A  WCI  11
$$

...SOME OBSERVATIONS FROM AROUND THE REGION...

CITY           SKY/WX    TMP DP  RH WIND       PRES   REMARKS
DENVER         CLOUDY    28   9  44 SW18      30.11F WCI  15
GRAND JUNCTION CLOUDY    23  13  65 SE5       30.38R WCI  17
LARAMIE        CLOUDY    20   9  62 SW17      30.13F WCI   5
CHEYENNE       CLOUDY    32  11  41 W14       30.07F WCI  22
CASPER         CLOUDY    29  17  61 SW22      30.08S WCI  15
BISMARCK       CLOUDY    29  24  82 W7        29.91F WCI  22
RAPID CITY     CLOUDY    15   9  76 W5        29.95F WCI   8
PIERRE         CLOUDY    28  23  81 W10       29.96F WCI  19
SIOUX FALLS    CLOUDY    31  27  85 W7        29.97F WCI  24
OMAHA          CLOUDY    33  24  69 SW5       30.10F WCI  29
GRAND ISLAND   CLEAR     26  23  88 W12       30.14S WCI  16
SCOTTSBLUFF    CLOUDY    12   9  87 NW7       30.07F WCI   1
KANSAS CITY    CLOUDY    35  30  82 W5        30.13R WCI  31
HILL CITY      CLEAR     22  18  85 W7        30.20F WCI  13
WICHITA        PTCLDY    33  29  85 NW9       30.22R WCI  25
DODGE CITY     CLEAR     21  16  81 W8        30.24S WCI  11
OKLAHOMA CITY  CLEAR     32  27  81 NW13      30.25R WCI  22
DALLAS         PTCLDY    40  27  59 NW9       30.22S WCI  34
AMARILLO       CLEAR     25  22  88 W8        30.30S WCI  16
$$




USA.gov is the U.S. government's official web portal to all federal, state and local government web resources and services.